AFR1147 LFPG-EPWA

Flight info

Callsign AFR1147
Flight time N/A
Altitude 38000
Route RANUX DCT VALEK DCT LIPNI UN858 LIMGO DCT BITBU Z140 AGBUL DCT ODVUX DCT 502226N0075959E 503616N0090006E DCT MASEK DCT 510232N0105940E 511418N0120025E 512916N0132128E DCT POZUM DCT 520005N0161918E DCT OBOKU DCT DOSIX DCT BIMPA
Aircraft A319/M-SDE3FGHIRWY/LB1

Departure

Time N/A
Airport Charles de Gaulle International Airport (LFPG)

Arrival

Time 2026-05-04 15:20
Airport Warsaw Chopin Airport (EPWA)
Time Latitude Longitude Altitude Speed Heading
2026-05-04 15:16 52.04656 21.07145 2664 ft 128 kts 325°
2026-05-04 15:16 52.06488 21.05546 2273 ft 129 kts 326°
2026-05-04 15:17 52.07018 21.05082 2161 ft 129 kts 326°
2026-05-04 15:17 52.08592 21.03707 1836 ft 128 kts 326°
2026-05-04 15:17 52.09644 21.02785 1612 ft 128 kts 326°
2026-05-04 15:18 52.10421 21.02103 1454 ft 127 kts 327°
2026-05-04 15:18 52.10941 21.01649 1341 ft 127 kts 326°
2026-05-04 15:18 52.11715 21.00969 1160 ft 128 kts 327°
2026-05-04 15:19 52.13278 20.99601 845 ft 127 kts 327°
2026-05-04 15:19 52.14316 20.98694 632 ft 126 kts 327°
2026-05-04 15:19 52.15593 20.97575 375 ft 123 kts 329°
2026-05-04 15:20 52.16376 20.96877 365 ft 72 kts 337°
2026-05-04 15:20 52.16629 20.96654 365 ft 46 kts 334°
2026-05-04 15:20 52.16931 20.96512 365 ft 18 kts 358°
2026-05-04 15:20 52.17033 20.96513 365 ft 9 kts
2026-05-04 15:21 52.17086 20.96562 365 ft 9 kts 62°
2026-05-04 15:21 52.17108 20.96629 365 ft 10 kts 61°
2026-05-04 15:21 52.17111 20.96882 365 ft 12 kts 156°
2026-05-04 15:22 52.17057 20.96928 365 ft 13 kts 150°
2026-05-04 15:22 52.16971 20.97004 365 ft 14 kts 153°
2026-05-04 15:22 52.16904 20.97170 365 ft 9 kts 75°
2026-05-04 15:23 52.16912 20.97219 365 ft 1 kts 77°
2026-05-04 15:23 52.16914 20.97231 365 ft 0 kts 76°